Terug naar catalogus

STARLINK-30329

ActiefCommunicatieVLEO
NORAD 57635·PAYLOAD·🇺🇸 United States

Gelanceerd Aug 17, 2023 vanaf Cape Canaveral Space Force Station

Loading…

Volgende Passages (komende 24 uur)

TLE

VersSource: CelesTrak SupGP

Epoch: Sep 15, 2026, 02:43 UTC

1 57635C 23122D   26258.11368056  .00032084  00000+0  11621-2 0  2586
2 57635  43.0004 103.0309 0001548 277.0350  76.1363 15.27561352    11

Volg STARLINK-30329 in realtime met AllMySat

Download on the App Store